EN

Hourly Weather Alquezar

Today, 17 January, Sunday

Time Temperature Precipitation Wind Pressure Humidity
00:00 +2°C° 0 mm 1 mps 696 mmHg 76%
01:00 +2°C° 0 mm 1 mps 696 mmHg 77%
02:00 +2°C° 0 mm 1 mps 696 mmHg 78%
03:00 +1°C° 0 mm 2 mps 696 mmHg 79%
04:00 +1°C° 0 mm 2 mps 695 mmHg 80%
05:00 +2°C° 0 mm 2 mps 695 mmHg 82%
06:00 +2°C° 0 mm 2 mps 695 mmHg 83%
07:00 +3°C° 0 mm 2 mps 695 mmHg 83%
08:00 +4°C° 0 mm 2 mps 695 mmHg 84%
09:00 +5°C° 0 mm 2 mps 696 mmHg 84%
10:00 +7°C° 0 mm 3 mps 696 mmHg 81%
11:00 +8°C° 0 mm 3 mps 696 mmHg 78%
12:00 +10°C° 0 mm 3 mps 697 mmHg 75%
13:00 +10°C° 0 mm 3 mps 696 mmHg 76%
14:00 +10°C° 0 mm 3 mps 696 mmHg 77%
15:00 +10°C° 0 mm 3 mps 696 mmHg 78%
16:00 +8°C° 0 mm 3 mps 696 mmHg 81%
17:00 +5°C° 0 mm 3 mps 696 mmHg 83%
18:00 +4°C° 0 mm 3 mps 696 mmHg 86%
19:00 +3°C° 0 mm 3 mps 696 mmHg 84%
20:00 +2°C° 0 mm 3 mps 696 mmHg 82%
21:00 +2°C° 0 mm 3 mps 697 mmHg 81%
22:00 +1°C° 0 mm 3 mps 697 mmHg 78%
23:00 +1°C° 0 mm 2 mps 697 mmHg 75%

Tomorrow, 18 January, Monday

Time Temperature Precipitation Wind Pressure Humidity
00:00 -1°C° 0 mm 2 mps 697 mmHg 73%
01:00 -1°C° 0 mm 2 mps 697 mmHg 69%
02:00 -1°C° 0 mm 2 mps 696 mmHg 65%
03:00 -2°C° 0 mm 2 mps 696 mmHg 61%
04:00 -2°C° 0 mm 2 mps 696 mmHg 60%
05:00 0°C° 0 mm 1 mps 696 mmHg 58%
06:00 0°C° 0 mm 1 mps 696 mmHg 56%
07:00 +1°C° 0 mm 1 mps 697 mmHg 55%
08:00 +2°C° 0 mm 1 mps 697 mmHg 54%
09:00 +3°C° 0 mm 1 mps 697 mmHg 53%
10:00 +4°C° 0 mm 1 mps 697 mmHg 52%
11:00 +6°C° 0 mm 1 mps 697 mmHg 52%
12:00 +7°C° 0 mm 1 mps 697 mmHg 52%
13:00 +7°C° 0 mm 1 mps 697 mmHg 55%
14:00 +7°C° 0 mm 1 mps 696 mmHg 58%
15:00 +7°C° 0 mm 1 mps 696 mmHg 61%
16:00 +5°C° 0 mm 1 mps 696 mmHg 66%
17:00 +3°C° 0 mm 1 mps 696 mmHg 72%
18:00 +1°C° 0 mm 0 mps 696 mmHg 78%
19:00 +1°C° 0 mm 1 mps 696 mmHg 76%
20:00 +1°C° 0 mm 1 mps 696 mmHg 75%
21:00 +1°C° 0 mm 1 mps 696 mmHg 73%
22:00 +1°C° 0 mm 1 mps 696 mmHg 72%
23:00 +1°C° 0 mm 1 mps 696 mmHg 72%

Day after tomorrow, 19 January, Tuesday

Time Temperature Precipitation Wind Pressure Humidity
00:00 0°C° 0 mm 1 mps 695 mmHg 71%
01:00 0°C° 0 mm 1 mps 695 mmHg 70%
02:00 0°C° 0 mm 1 mps 695 mmHg 69%
03:00 0°C° 0 mm 1 mps 694 mmHg 69%
04:00 0°C° 0 mm 1 mps 694 mmHg 68%
05:00 0°C° 0 mm 1 mps 694 mmHg 67%
06:00 0°C° 0 mm 1 mps 694 mmHg 66%
07:00 +1°C° 0 mm 1 mps 694 mmHg 64%
08:00 +2°C° 0 mm 1 mps 694 mmHg 61%
09:00 +3°C° 0 mm 1 mps 694 mmHg 59%
10:00 +5°C° 0 mm 1 mps 694 mmHg 57%
11:00 +6°C° 0 mm 1 mps 694 mmHg 55%
12:00 +8°C° 0 mm 1 mps 694 mmHg 54%
13:00 +8°C° 0 mm 1 mps 693 mmHg 56%
14:00 +8°C° 0 mm 1 mps 692 mmHg 59%
15:00 +8°C° 0 mm 1 mps 692 mmHg 61%
16:00 +6°C° 0 mm 1 mps 691 mmHg 68%
17:00 +4°C° 0 mm 1 mps 691 mmHg 74%
18:00 +2°C° 0 mm 1 mps 691 mmHg 81%
19:00 +2°C° 0 mm 1 mps 691 mmHg 80%
20:00 +2°C° 0 mm 1 mps 690 mmHg 79%
21:00 +1°C° 0 mm 2 mps 690 mmHg 78%
22:00 +1°C° 0 mm 2 mps 690 mmHg 77%
23:00 +1°C° 0 mm 2 mps 690 mmHg 75%

20 January, Wednesday

Time Temperature Precipitation Wind Pressure Humidity
00:00 +1°C° 0 mm 2 mps 689 mmHg 73%
01:00 +2°C° 0 mm 1 mps 689 mmHg 74%
02:00 +2°C° 0 mm 1 mps 688 mmHg 74%
03:00 +2°C° 0 mm 1 mps 687 mmHg 74%
04:00 +1°C° 0 mm 1 mps 687 mmHg 75%
05:00 +1°C° 0 mm 1 mps 687 mmHg 75%
06:00 +1°C° 0 mm 1 mps 686 mmHg 75%
07:00 +2°C° 0 mm 1 mps 686 mmHg 74%
08:00 +3°C° 0 mm 1 mps 686 mmHg 72%
09:00 +4°C° 0 mm 1 mps 686 mmHg 71%
10:00 +5°C° 0.1 mm 1 mps 686 mmHg 70%
11:00 +6°C° 0.1 mm 1 mps 685 mmHg 69%
12:00 +6°C° 0.1 mm 2 mps 685 mmHg 69%
13:00 +5°C° 0.9 mm 2 mps 684 mmHg 76%
14:00 +4°C° 0.9 mm 2 mps 683 mmHg 83%
15:00 +3°C° 0.9 mm 2 mps 682 mmHg 90%
16:00 +3°C° 2.1 mm 2 mps 682 mmHg 92%
17:00 +3°C° 2.1 mm 2 mps 682 mmHg 94%
18:00 +3°C° 2.1 mm 1 mps 682 mmHg 96%
19:00 +3°C° 1.1 mm 1 mps 682 mmHg 96%
20:00 +4°C° 1.1 mm 1 mps 682 mmHg 97%
21:00 +4°C° 1.1 mm 1 mps 682 mmHg 97%
22:00 +4°C° 1.2 mm 1 mps 682 mmHg 97%
23:00 +4°C° 1.2 mm 1 mps 683 mmHg 97%

21 January, Thursday

Time Temperature Precipitation Wind Pressure Humidity
00:00 +4°C° 1.2 mm 1 mps 683 mmHg 97%
01:00 +4°C° 0.5 mm 1 mps 683 mmHg 97%
02:00 +3°C° 0.5 mm 0 mps 683 mmHg 98%
03:00 +3°C° 0.5 mm 0 mps 683 mmHg 98%
04:00 +3°C° 0.3 mm 0 mps 683 mmHg 97%
05:00 +3°C° 0.3 mm 0 mps 684 mmHg 97%
06:00 +4°C° 0.3 mm 1 mps 684 mmHg 96%
07:00 +4°C° 0.1 mm 0 mps 685 mmHg 95%
08:00 +4°C° 0.1 mm 0 mps 685 mmHg 93%
09:00 +5°C° 0.1 mm 0 mps 686 mmHg 92%
10:00 +7°C° 0 mm 1 mps 686 mmHg 88%
11:00 +8°C° 0 mm 1 mps 686 mmHg 83%
12:00 +8°C° 0 mm 2 mps 686 mmHg 79%
13:00 +9°C° 0.1 mm 1 mps 686 mmHg 80%
14:00 +9°C° 0.1 mm 1 mps 685 mmHg 81%
15:00 +9°C° 0.1 mm 1 mps 685 mmHg 81%
16:00 +8°C° 1.2 mm 1 mps 684 mmHg 86%
17:00 +8°C° 1.2 mm 1 mps 684 mmHg 91%
18:00 +7°C° 1.2 mm 1 mps 684 mmHg 95%
19:00 +7°C° 2.1 mm 1 mps 683 mmHg 96%
20:00 +7°C° 2.1 mm 1 mps 683 mmHg 96%
21:00 +7°C° 2.1 mm 1 mps 683 mmHg 96%
22:00 +7°C° 1.6 mm 1 mps 682 mmHg 96%
23:00 +7°C° 1.6 mm 1 mps 682 mmHg 97%

22 January, Friday

Time Temperature Precipitation Wind Pressure Humidity
00:00 +7°C° 1.6 mm 1 mps 681 mmHg 97%
01:00 +7°C° 1.3 mm 1 mps 681 mmHg 97%
02:00 +6°C° 1.3 mm 2 mps 681 mmHg 96%
03:00 +6°C° 1.3 mm 2 mps 681 mmHg 96%
04:00 +6°C° 0.2 mm 2 mps 681 mmHg 95%
05:00 +6°C° 0.2 mm 2 mps 681 mmHg 94%
06:00 +6°C° 0.2 mm 1 mps 682 mmHg 93%
07:00 +6°C° 0 mm 2 mps 682 mmHg 91%
08:00 +6°C° 0 mm 2 mps 682 mmHg 89%
09:00 +6°C° 0 mm 2 mps 682 mmHg 87%
10:00 +7°C° 0.1 mm 3 mps 682 mmHg 80%
11:00 +8°C° 0.1 mm 4 mps 682 mmHg 73%
12:00 +9°C° 0.1 mm 5 mps 682 mmHg 66%
13:00 +8°C° 0.4 mm 6 mps 681 mmHg 66%
14:00 +8°C° 0.4 mm 6 mps 681 mmHg 66%
15:00 +7°C° 0.4 mm 6 mps 680 mmHg 66%
16:00 +5°C° 0.7 mm 6 mps 680 mmHg 74%
17:00 +3°C° 0.7 mm 7 mps 681 mmHg 82%
18:00 0°C° 0.7 mm 7 mps 681 mmHg 90%
19:00 +1°C° 0.1 mm 6 mps 682 mmHg 87%
20:00 +1°C° 0.1 mm 6 mps 683 mmHg 85%
21:00 +1°C° 0.1 mm 6 mps 684 mmHg 82%
22:00 0°C° 0 mm 5 mps 685 mmHg 82%
23:00 0°C° 0 mm 5 mps 685 mmHg 81%
Show more